Weather History for KJYL - July, 2013

Change the Weather History Date:

Saturday, July 13, 2013

  Actual Average (KSAV) Record (KSAV)
Temperature  
Mean Temperature 78 °F 83 °F  
Max Temperature 83 °F 93 °F 104 °F (1980)
Min Temperature 72 °F 73 °F 63 °F (1918)
Degree Days  
Heating Degree Days 0 0  
Month to date heating degree days 0  
Since 1 June heating degree days 0  
Since 1 July heating degree days 0  
Cooling Degree Days 12 18  
Month to date cooling degree days 226  
Year to date cooling degree days 1075  
Since 1 June cooling degree days 672  
Growing Degree Days 28 (Base 50)    
Moisture  
Dew Point 72 °F    
Average Humidity 87    
Maximum Humidity 91    
Minimum Humidity 72    
Precipitation  
Precipitation 0.00 in 0.17 in 2.55 in (2013)
Month to date precipitation 2.21  
Year to date precipitation 24.42  
Sea Level Pressure  
Sea Level Pressure 30.01 in    
Wind  
Wind Speed 3 mph (ENE)    
Max Wind Speed 9 mph    
Max Gust Speed 16 mph    
Visibility 9 miles    
Events Rain , Thunderstorm    
T = Trace of Precipitation, MM = Missing Value Source: NWS Daily Summary

Daily Weather History Graph

Daily Weather History Graph

Search for Another Location

Airport or City:

Trip Planner

Search our weather history database for the weather conditions in past years. The results will help you decide how hot, cold, wet, or windy it might be!

Date:

Astronomy

Jul. 13, 2013 Rise Set
Actual Time 6:28 AM EDT 8:35 PM EDT
Civil Twilight 6:00 AM EDT 9:03 PM EDT
Nautical Twilight 5:26 AM EDT 9:37 PM EDT
Astronomical Twilight 4:49 AM EDT 10:14 PM EDT
Moon 11:23 AM EDT (7/13) 11:37 PM EDT (7/13)
Length of Visible Light 15h 03m
Length of Day
14h 07m
Waxing Crescent, 25% of the Moon is Illuminated
Jul 13
Waxing Crescent
Jul 15
First Quarter
Jul 22
Full
Jul 29
Last Quarter
Aug 6
New

Hourly Weather History & Observations

Time (EDT) Temp. Heat Index Dew Point Humidity Pressure Visibility Wind Dir Wind Speed Gust Speed Precip Events Conditions
12:15 AM 76.1 °F - 72.0 °F 87% 29.96 in 10.0 mi Calm Calm - N/A   Clear
12:35 AM 76.1 °F - 71.8 °F 86% 29.96 in 10.0 mi Calm Calm - N/A   Clear
12:55 AM 75.6 °F - 71.6 °F 87% 29.95 in 10.0 mi South 3.5 mph - N/A   Clear
1:15 AM 75.6 °F - 71.6 °F 87% 29.95 in 10.0 mi Calm Calm - N/A   Clear
1:35 AM 75.6 °F - 71.6 °F 87% 29.96 in 10.0 mi Calm Calm - N/A   Clear
1:55 AM 75.4 °F - 71.6 °F 88% 29.96 in 10.0 mi Calm Calm - N/A   Clear
2:15 AM 75.2 °F - 71.2 °F 87% 29.96 in 10.0 mi Calm Calm - N/A   Clear
2:35 AM 74.7 °F - 71.1 °F 88% 29.96 in 10.0 mi Calm Calm - N/A   Clear
2:55 AM 75.2 °F - 71.6 °F 89% 29.96 in 10.0 mi Calm Calm - N/A   Clear
3:15 AM 74.8 °F - 71.2 °F 88% 29.96 in 10.0 mi Calm Calm - N/A   Clear
3:35 AM 74.8 °F - 71.2 °F 88% 29.96 in 10.0 mi Calm Calm - N/A   Mostly Cloudy
3:55 AM 74.8 °F - 71.2 °F 88% 29.96 in 10.0 mi Calm Calm - N/A   Mostly Cloudy
4:15 AM 74.8 °F - 71.6 °F 90% 29.96 in 10.0 mi Calm Calm - N/A   Scattered Clouds
4:35 AM 75.0 °F - 71.6 °F 89% 29.96 in 10.0 mi East 3.5 mph - N/A   Mostly Cloudy
4:55 AM 75.2 °F - 71.8 °F 89% 29.96 in 10.0 mi East 3.5 mph - N/A   Overcast
5:15 AM 75.2 °F - 71.6 °F 89% 29.96 in 10.0 mi East 3.5 mph - N/A   Overcast
5:35 AM 75.2 °F - 71.8 °F 89% 29.96 in 10.0 mi East 3.5 mph - N/A   Overcast
5:55 AM 75.2 °F - 71.6 °F 89% 29.96 in 10.0 mi East 3.5 mph - N/A   Mostly Cloudy
6:15 AM 75.2 °F - 71.6 °F 89% 29.97 in 7.0 mi East 4.6 mph - N/A   Mostly Cloudy
6:35 AM 75.2 °F - 71.8 °F 89% 29.97 in 7.0 mi Calm Calm - N/A   Mostly Cloudy
6:55 AM 75.2 °F - 71.8 °F 89% 29.98 in 7.0 mi Calm Calm - N/A   Overcast
7:15 AM 75.2 °F - 72.0 °F 90% 29.98 in 7.0 mi East 5.8 mph - N/A   Overcast
7:35 AM 75.6 °F - 72.1 °F 89% 29.99 in 7.0 mi ENE 4.6 mph - N/A   Overcast
7:55 AM 76.1 °F - 72.5 °F 89% 29.99 in 7.0 mi ENE 5.8 mph - N/A   Overcast
8:15 AM 76.5 °F - 72.5 °F 87% 30.00 in 7.0 mi ENE 5.8 mph - N/A   Overcast
8:35 AM 76.6 °F - 72.5 °F 87% 30.01 in 7.0 mi East 5.8 mph - N/A   Overcast
8:55 AM 77.0 °F - 72.5 °F 86% 30.02 in 7.0 mi East 8.1 mph - N/A   Overcast
9:15 AM 77.0 °F - 72.5 °F 86% 30.03 in 7.0 mi East 5.8 mph - N/A   Overcast
9:35 AM 77.0 °F - 72.5 °F 86% 30.03 in 7.0 mi East 4.6 mph - N/A   Overcast
9:55 AM 77.4 °F - 72.7 °F 85% 30.04 in 7.0 mi East 4.6 mph - N/A   Overcast
10:15 AM 77.9 °F - 72.7 °F 84% 30.04 in 7.0 mi East 5.8 mph - N/A   Overcast
10:35 AM 78.3 °F - 72.9 °F 83% 30.03 in 5.0 mi ENE 4.6 mph - N/A   Haze
10:55 AM 79.5 °F - 73.2 °F 81% 30.04 in 7.0 mi East 5.8 mph - N/A   Overcast
11:15 AM 80.1 °F 84.4 °F 73.2 °F 80% 30.04 in 7.0 mi ENE 5.8 mph - N/A   Overcast
11:35 AM 81.5 °F 86.7 °F 73.4 °F 76% 30.03 in 10.0 mi East 4.6 mph - N/A   Overcast
11:55 AM 82.0 °F 87.7 °F 73.4 °F 75% 30.03 in 10.0 mi East 5.8 mph - N/A Thunderstorm Overcast
12:15 PM 83.1 °F 89.8 °F 73.9 °F 74% 30.03 in 10.0 mi East 5.8 mph - N/A   Overcast
12:35 PM 83.3 °F 89.6 °F 73.4 °F 72% 30.03 in 10.0 mi NE 4.6 mph - N/A Thunderstorm Mostly Cloudy
12:55 PM 82.4 °F 87.7 °F 72.7 °F 72% 30.03 in 10.0 mi NE 6.9 mph - N/A   Mostly Cloudy
1:15 PM 79.7 °F - 73.4 °F 81% 30.03 in 5.0 mi NNE 5.8 mph 9.2 mph N/A Rain , Thunderstorm Rain
1:35 PM 79.0 °F - 74.1 °F 85% 30.02 in 10.0 mi North 3.5 mph - N/A Thunderstorm Overcast
1:55 PM 78.8 °F - 74.5 °F 87% 30.01 in 7.0 mi NW 9.2 mph - N/A Rain Rain
2:15 PM 77.7 °F - 73.9 °F 88% 30.04 in 1.8 mi SW 5.8 mph - N/A Rain , Thunderstorm Heavy Thunderstorms and Rain
2:35 PM 74.3 °F - 70.9 °F 89% 30.04 in 0.5 mi West 8.1 mph 16.1 mph N/A Rain , Thunderstorm Heavy Thunderstorms and Rain
2:55 PM 74.5 °F - 71.6 °F 91% 30.04 in 1.5 mi NW 4.6 mph - N/A Rain , Thunderstorm Heavy Thunderstorms and Rain
3:15 PM 72.5 °F - 69.1 °F 89% 30.03 in 7.0 mi North 5.8 mph - N/A Rain , Thunderstorm Thunderstorms and Rain
3:35 PM 73.4 °F - 70.2 °F 90% 30.03 in 10.0 mi Calm Calm - N/A Rain , Thunderstorm Rain
3:55 PM 73.9 °F - 70.7 °F 90% 30.03 in 5.0 mi Calm Calm - N/A Rain , Thunderstorm Thunderstorms and Rain
4:15 PM 74.5 °F - 71.1 °F 89% 30.02 in 10.0 mi North 4.6 mph - N/A   Overcast
4:35 PM 75.2 °F - 72.0 °F 90% 30.02 in 10.0 mi Calm Calm - N/A   Mostly Cloudy
4:55 PM 76.6 °F - 73.2 °F 89% 30.02 in 10.0 mi NE 6.9 mph - N/A Thunderstorm Thunderstorm
5:15 PM 77.9 °F - 73.8 °F 87% 30.03 in 10.0 mi ENE 4.6 mph - N/A   Clear
5:35 PM 77.2 °F - 73.4 °F 88% 30.03 in 10.0 mi East 6.9 mph - N/A Rain Light Rain
5:55 PM 77.0 °F - 73.4 °F 89% 30.03 in 10.0 mi East 5.8 mph - N/A Rain Light Rain
6:15 PM 77.0 °F - 73.2 °F 88% 30.03 in 10.0 mi Calm Calm - N/A   Light Drizzle
6:35 PM 77.0 °F - 72.9 °F 87% 30.03 in 10.0 mi Calm Calm - N/A   Mostly Cloudy
6:55 PM 77.9 °F - 73.4 °F 86% 30.03 in 10.0 mi Calm Calm - N/A Rain Light Rain
7:15 PM 77.5 °F - 73.4 °F 87% 30.04 in 10.0 mi Calm Calm - N/A   Mostly Cloudy
7:35 PM 77.2 °F - 73.0 °F 87% 30.04 in 10.0 mi Calm Calm - N/A   Scattered Clouds
7:55 PM 77.0 °F - 73.0 °F 88% 30.03 in 10.0 mi Calm Calm - N/A   Clear
8:15 PM 76.5 °F - 72.9 °F 89% 30.04 in 10.0 mi ENE 3.5 mph - N/A   Clear
8:35 PM 76.3 °F - 72.9 °F 89% 30.04 in 10.0 mi East 3.5 mph - N/A   Mostly Cloudy
8:55 PM 76.1 °F - 72.7 °F 89% 30.04 in 10.0 mi Calm Calm - N/A   Scattered Clouds
9:15 PM 76.1 °F - 72.7 °F 89% 30.03 in 10.0 mi Calm Calm - N/A   Clear
9:35 PM 75.7 °F - 72.5 °F 90% 30.02 in 7.0 mi ENE 5.8 mph - N/A   Scattered Clouds
9:55 PM 76.1 °F - 72.9 °F 90% 30.03 in 10.0 mi ENE 3.5 mph - N/A   Mostly Cloudy
10:15 PM 75.7 °F - 72.7 °F 90% 30.03 in 10.0 mi East 3.5 mph - N/A   Scattered Clouds
10:35 PM 75.6 °F - 72.5 °F 90% 30.04 in 10.0 mi East 4.6 mph - N/A   Scattered Clouds
10:55 PM 75.6 °F - 72.5 °F 90% 30.06 in 10.0 mi East 5.8 mph - N/A   Mostly Cloudy
11:15 PM 75.6 °F - 72.5 °F 90% 30.06 in 10.0 mi East 6.9 mph - N/A   Mostly Cloudy
11:35 PM 75.6 °F - 72.5 °F 90% 30.07 in 10.0 mi East 3.5 mph - N/A   Mostly Cloudy
11:55 PM 75.4 °F - 72.5 °F 91% 30.06 in 10.0 mi East 3.5 mph - N/A   Scattered Clouds